Skip Page Navigation
NASA JPL Caltech
NASA Logo - Jet Propulsion Laboratory + View the NASA Portal
+ Center for Near-Earth Object Studies
JPL Home Earth Solar System Stars & Galaxies Technology
JPL Solar System Dynamics
BODIES ORBITS EPHEMERIDES TOOLS PHYSICAL DATA DISCOVERY FAQ SITE MAP
JPL Small-Body Database Browser
Search: [ help ]  
146016 (2000 CS115)
Classification: Main-belt Asteroid          SPK-ID: 2146016
Ephemeris | Orbit Diagram | Orbital Elements | Mission Design | Physical Parameters | Discovery Circumstances ]

[ show orbit diagram ]
Orbital Elements at Epoch 2459000.5 (2020-May-31.0) TDB
Reference: JPL 14 (heliocentric ecliptic J2000)
 Element Value Uncertainty (1-sigma)   Units 
e .1457988695580043 4.8797e-08  
a 2.361964318705177 1.4089e-08 au
q 2.017592591101621 1.1633e-07 au
i 1.735108711316899 5.5092e-06 deg
node 255.2262771639805 0.00017968 deg
peri 295.0648057748537 0.00018105 deg
M 172.080298604181 2.1088e-05 deg
tp 2458366.722122110799
(2018-Sep-05.22212211)
7.5535e-05 TDB
period 1325.892841253872
3.63
1.1863e-05
3.248e-08
d
yr
n .2715151547688837 2.4294e-09 deg/d
Q 2.706336046308734 1.6143e-08 au
  Orbit Determination Parameters
   # obs. used (total)      350  
   data-arc span      9074 days (24.84 yr)  
   first obs. used      1993-03-21  
   last obs. used      2018-01-23  
   planetary ephem.      DE431  
   SB-pert. ephem.      SB431-N16  
   condition code      0  
   norm. resid. RMS      .59319  
   source      ORB  
   producer      Otto Matic  
   solution date      2018-Feb-06 07:28:10  

Additional Information
 Earth MOID = 1.0185 au 
 Jupiter MOID = 2.25595 au 
 T_jup = 3.535 
[ show covariance matrix ]

Ephemeris | Orbit Diagram | Orbital Elements | Mission Design | Physical Parameters | Discovery Circumstances ]

Physical Parameter Table
Parameter Symbol Value Units Sigma Reference Notes
absolute magnitude H 16.7   n/a MPO436733  

146016 (2000 CS115)          Discovered 2000-Feb-01 by CSS at Catalina
Reference: 20070106/Numbers.arcLast Updated: 2007-01-09

Alternate Designations
 2000 CS115 = 2004 FW110 
Ephemeris | Orbit Diagram | Orbital Elements | Mission Design | Physical Parameters | Discovery Circumstances ]
ABOUT SSD CREDITS/AWARDS PRIVACY/COPYRIGHT GLOSSARY LINKS
FirstGov 2020-Aug-04 23:20 UT
(server date/time)  
NASA Home Page
Site Manager:   Ryan S. Park
Webmaster  Alan B. Chamberlin